Theta_e
288 289 290 290 290 289 289 290 290 290 290 291 291 291 292 292 293 293 294 294 294 294 294 294 293 293 293 294 296 296 297 297 297 297 298 298 298 298 298 299 299 299 299 300 300 300 300 301 301 301 302 302 303 303 304 304 305 306 307 307 307 307 307 308 308 309 310 311 311 312 313 314 315 316 316 317 317 317 318 318 318 318 319 319 319 319
288 288 289 289 289 288 289 290 290 290 290 290 291 291 292 292 293 293 294 294 294 294 293 292 292 291 291 292 294 296 296 296 297 297 297 298 298 298 298 298 299 299 299 299 300 300 300 301 301 301 301 302 302 303 304 304 305 305 305 305 305 306 306 307 308 309 309 310 311 312 313 314 314 314 315 315 315 316 317 317 318 318 318 319 319 319
287 287 288 288 288 288 288 289 290 291 291 291 291 292 292 292 292 293 293 293 293 293 292 291 291 291 290 291 293 295 296 296 297 297 297 297 298 298 298 298 299 299 299 299 300 300 300 301 301 301 302 302 303 303 304 304 304 304 304 304 305 306 306 307 307 308 308 309 310 311 312 312 313 313 313 313 314 315 316 317 318 318 318 318 319 319
287 287 287 288 288 288 289 289 290 291 292 292 292 292 292 292 292 292 292 292 291 291 291 291 290 290 290 291 292 294 296 296 297 297 297 297 298 298 298 298 298 299 299 299 300 300 300 301 301 301 302 302 302 303 303 303 303 303 304 304 305 305 306 306 306 307 307 307 308 309 310 311 311 312 312 313 313 314 315 316 317 318 318 318 318 319
286 287 287 288 288 288 289 290 291 292 292 292 292 292 292 291 291 291 291 290 290 290 290 290 290 290 290 290 291 293 295 296 296 297 297 297 297 298 298 298 298 299 299 299 299 300 300 301 301 301 301 302 302 302 303 303 303 303 303 304 304 305 305 305 305 305 306 306 307 307 308 309 310 311 312 313 314 314 315 315 316 317 317 318 318 318
287 287 288 288 288 289 290 291 292 292 291 291 290 290 290 290 290 289 289 289 289 289 289 290 290 290 290 290 292 293 295 295 296 296 296 297 297 297 298 298 298 299 299 299 299 300 300 300 301 301 301 302 302 302 302 303 303 303 303 304 304 304 305 305 305 305 306 306 307 307 308 308 309 310 311 312 313 314 314 315 315 316 316 317 318 318
287 288 288 288 289 290 291 291 291 290 289 288 288 288 288 288 288 288 288 288 289 289 289 289 289 290 290 290 292 293 294 294 295 295 296 296 297 297 297 298 298 298 299 299 299 300 300 300 301 301 301 301 302 302 302 303 303 303 303 304 304 304 305 306 306 306 306 306 306 306 307 308 309 310 310 311 312 313 314 314 315 315 316 316 317 318
287 287 288 289 289 290 290 289 289 288 288 287 287 286 287 287 287 288 288 288 288 288 288 288 289 289 289 290 291 291 291 292 292 293 294 295 295 296 297 297 298 298 299 299 299 300 300 300 301 301 302 302 302 302 303 303 303 303 303 304 304 304 305 306 306 306 305 305 304 305 306 307 308 309 310 311 312 312 313 313 314 315 315 316 317 318
286 286 287 288 288 287 286 286 287 287 287 287 286 286 286 286 286 286 287 287 287 288 288 288 288 288 289 289 289 290 290 291 291 291 292 292 293 294 295 296 297 298 299 299 299 300 301 301 301 302 302 303 303 303 303 303 303 303 303 304 304 305 305 305 305 305 304 303 303 304 305 306 308 309 310 311 311 311 312 312 313 314 315 316 317 318
286 286 286 287 287 286 285 285 286 287 288 288 287 287 286 285 285 285 285 285 287 288 288 288 287 287 287 288 288 289 290 290 291 292 293 293 293 294 295 296 296 297 299 299 300 300 300 301 301 302 302 302 303 303 303 303 303 303 303 304 304 304 304 304 304 304 303 303 304 304 305 306 308 309 310 310 310 311 311 312 313 313 314 316 317 318
286 286 285 285 286 286 285 285 286 287 288 288 287 287 287 286 285 284 284 284 286 287 288 287 287 286 286 286 287 288 288 289 290 291 293 293 294 295 296 296 297 298 299 299 299 299 300 300 301 301 301 301 302 302 302 302 302 303 303 303 304 304 304 304 303 304 304 304 304 305 306 307 308 309 310 310 310 311 311 312 312 313 314 315 316 317
285 285 285 285 285 285 286 286 287 288 288 287 286 285 285 285 285 285 284 284 285 286 286 286 286 286 286 286 286 287 287 287 288 289 290 291 293 294 295 296 297 298 298 298 298 299 299 299 299 299 300 300 300 301 301 301 301 302 302 303 303 303 303 303 303 304 304 304 305 306 307 308 309 309 310 311 311 311 311 311 312 312 313 314 314 315
285 286 286 286 286 286 286 286 287 287 287 286 284 283 283 284 285 286 285 285 285 285 285 285 285 285 286 286 286 287 287 287 287 288 289 290 292 294 295 294 294 294 294 294 294 294 296 297 297 298 298 298 298 299 300 300 300 301 301 302 302 302 303 303 303 304 304 304 305 306 307 308 309 310 310 310 311 311 311 311 311 312 312 313 313 314
285 285 285 285 285 285 286 286 285 285 285 284 284 284 284 285 286 286 286 285 285 285 285 284 284 284 285 286 287 287 287 287 287 288 289 291 293 293 292 291 291 291 291 291 291 292 294 294 294 295 296 297 297 298 298 299 300 300 301 301 301 302 302 302 303 303 303 304 305 305 306 307 308 309 309 310 310 310 310 310 310 310 311 311 312 312
285 284 284 283 283 284 284 284 284 283 283 284 284 284 285 285 286 286 285 284 284 284 284 284 283 284 285 286 286 287 287 287 287 288 290 291 291 291 291 290 290 290 290 290 290 291 292 293 292 293 294 294 295 296 297 298 299 300 300 301 301 301 302 302 302 303 303 303 304 304 305 306 306 307 308 308 309 309 309 309 309 309 309 309 310 311
284 283 282 282 282 282 283 283 283 283 283 284 284 284 284 285 285 285 284 283 283 283 283 282 282 282 283 285 286 287 287 288 288 289 289 289 289 290 290 289 289 289 289 289 289 290 291 291 292 292 293 294 296 297 298 298 299 300 300 301 301 301 301 301 301 301 302 303 303 304 304 305 306 306 307 308 308 308 308 308 308 308 308 308 309 309
283 282 281 281 281 282 282 283 283 283 283 283 284 284 285 285 285 285 284 284 283 283 282 281 280 280 281 283 285 287 289 289 289 288 288 287 288 289 290 289 288 288 288 289 289 289 290 291 292 292 293 295 296 298 298 299 299 300 300 300 300 300 299 300 300 300 301 302 303 303 304 305 305 306 306 307 307 307 307 307 307 307 307 307 308 308
282 281 281 281 281 281 282 283 283 283 283 284 284 285 286 286 286 285 284 283 283 282 281 281 280 280 280 281 284 287 290 289 289 287 287 286 287 288 289 289 289 288 288 288 289 290 291 291 292 292 293 296 297 298 299 299 299 299 299 299 299 299 299 299 299 300 300 301 302 303 303 304 304 304 304 304 305 305 305 305 306 306 306 306 307 307
281 281 281 281 281 282 282 282 283 283 283 284 284 285 286 286 286 285 284 283 282 281 281 280 280 280 280 281 283 286 289 288 287 286 285 284 285 287 289 289 289 288 288 288 289 290 291 291 292 294 295 297 298 298 298 298 298 298 297 298 298 299 299 300 300 301 301 302 302 302 302 302 301 302 302 302 303 303 303 304 304 304 304 305 305 306
281 281 282 282 282 282 282 283 284 284 285 286 286 285 284 284 284 283 283 282 282 281 281 280 280 280 281 282 284 286 288 287 286 285 284 284 285 287 289 288 288 287 287 288 289 290 290 291 292 294 297 297 297 297 297 296 296 296 296 297 298 299 299 300 301 301 301 301 302 301 301 301 301 301 301 301 301 302 302 303 303 303 303 304 304 305
281 282 282 283 283 283 283 284 285 286 287 287 286 285 284 283 282 282 282 281 281 281 281 280 280 281 282 283 284 286 287 287 286 284 284 284 286 287 288 288 287 286 286 287 288 290 291 292 293 295 296 296 296 296 295 295 296 296 296 296 297 297 298 299 299 300 300 300 301 300 300 300 300 300 300 300 301 301 301 302 302 302 303 303 303 304
282 282 283 284 284 284 285 286 287 288 288 287 285 284 283 282 281 281 281 281 281 281 281 281 282 282 283 284 285 286 288 287 286 285 285 284 285 286 287 287 286 286 286 287 289 290 292 293 293 293 293 294 294 294 295 295 295 295 295 295 295 296 296 297 297 298 299 299 299 299 299 299 299 299 299 300 300 300 300 301 301 302 302 302 303 303
283 283 284 285 286 286 286 286 286 287 287 286 285 284 283 282 282 281 281 281 281 281 282 282 283 284 285 285 286 287 288 288 287 287 285 283 283 284 286 286 286 286 286 288 289 291 291 290 290 290 291 293 293 293 294 294 294 294 294 294 295 295 295 296 296 297 298 298 299 299 299 299 299 299 299 299 299 299 299 300 300 301 301 302 302 302
284 285 286 287 287 287 286 286 285 285 285 284 284 284 284 284 283 283 283 283 283 283 283 284 284 284 285 286 286 286 287 288 289 288 285 283 283 283 285 286 286 286 286 287 288 288 288 288 288 289 290 292 292 293 293 293 293 293 294 294 295 295 296 296 297 297 298 298 298 298 298 298 298 298 298 298 298 299 299 299 299 300 300 301 301 302
286 287 287 287 287 287 286 285 285 285 284 284 284 284 284 285 285 285 285 284 284 284 283 283 282 282 283 284 285 285 287 289 289 287 284 283 283 283 285 285 285 285 285 286 286 287 287 287 288 288 289 290 291 292 292 292 293 293 294 295 295 296 297 297 297 298 298 298 297 298 298 298 298 298 297 297 297 298 298 298 298 299 299 300 300 301
288 289 289 289 288 288 287 287 287 287 287 286 285 284 284 284 284 284 283 283 283 283 282 281 281 281 282 282 283 285 288 289 288 287 284 283 282 282 284 285 285 284 284 285 286 287 287 287 287 287 287 288 289 291 292 292 293 293 294 295 295 296 296 296 296 296 296 297 297 297 297 297 297 297 297 297 297 297 297 298 298 299 299 299 300 300
289 290 290 289 288 287 287 287 287 288 288 288 287 286 285 284 283 282 281 281 282 282 281 280 280 280 281 281 282 284 286 287 286 285 285 283 282 282 283 284 284 284 284 285 285 286 287 286 286 286 286 286 288 289 291 292 292 293 294 294 294 294 294 294 294 294 295 296 296 296 296 296 296 296 296 297 297 297 298 298 298 298 299 299 299 300
289 289 289 287 287 286 287 287 287 287 287 287 287 287 286 283 282 280 280 281 282 281 281 280 279 279 280 281 282 283 284 284 284 285 285 284 282 282 283 284 284 284 284 284 285 285 286 285 285 285 286 286 287 288 290 291 292 292 292 292 292 292 292 293 293 294 295 295 295 295 295 295 296 296 296 297 297 298 298 298 298 298 299 299 299 299
288 288 287 286 286 286 286 285 286 286 286 287 287 287 286 283 282 281 281 282 282 281 280 280 280 280 281 281 282 282 282 282 283 285 285 283 282 282 283 284 284 284 283 283 283 283 284 284 285 285 285 286 287 287 288 289 290 290 290 291 291 291 292 292 293 293 294 294 295 295 295 295 295 296 297 297 298 299 299 299 299 299 299 299 299 299
285 285 284 284 284 284 284 283 284 285 286 286 286 286 285 284 283 282 282 283 282 281 280 281 281 281 281 280 280 279 279 281 283 285 285 283 282 282 283 283 283 283 283 282 281 280 281 283 284 285 285 286 286 286 286 287 287 287 288 289 290 290 291 292 293 293 294 294 294 294 295 295 296 296 297 298 299 300 301 301 300 300 299 299 299 299
283 282 282 282 282 282 282 282 282 283 284 285 285 285 285 284 283 283 284 283 283 282 281 281 281 281 280 279 278 277 278 280 283 285 285 283 282 282 283 282 282 283 283 282 280 278 278 280 282 284 285 285 285 285 285 286 286 286 286 287 287 289 290 292 292 293 294 294 294 294 294 295 296 297 298 299 300 301 302 302 302 301 300 299 299 299
282 281 281 281 281 281 281 282 282 282 282 283 283 283 284 284 284 284 284 283 283 283 282 281 280 280 280 279 278 277 278 280 283 285 286 283 283 283 283 282 282 282 283 282 281 279 278 279 281 282 284 284 284 284 285 286 286 286 286 286 286 287 290 291 292 292 292 293 293 294 294 295 296 297 298 299 301 302 303 303 303 302 301 299 299 299
281 281 280 280 281 281 281 281 281 281 281 281 282 282 283 283 284 284 284 284 283 283 282 281 280 280 279 279 279 279 280 281 284 285 286 284 283 283 283 282 281 281 282 282 282 281 280 279 280 281 282 283 283 284 285 285 286 286 285 285 286 287 289 291 291 291 291 291 292 293 294 296 297 297 298 300 301 302 304 304 304 303 302 300 299 299
280 280 280 280 280 280 280 280 280 280 281 281 281 282 282 282 283 283 283 283 283 283 282 281 280 280 279 279 279 279 280 282 284 286 286 284 283 282 282 281 281 281 281 281 281 281 280 280 280 280 281 282 283 284 284 285 285 285 285 286 286 287 289 290 290 290 290 290 291 292 294 295 296 297 298 299 301 303 304 304 304 304 303 301 300 300
280 280 280 279 279 279 279 280 280 280 280 280 281 281 282 282 282 282 282 283 283 283 282 282 281 281 280 279 279 279 280 282 284 286 287 285 284 283 282 281 281 281 280 280 280 280 280 280 280 280 280 281 281 282 283 284 284 285 285 286 287 287 288 289 289 289 289 290 290 292 293 293 294 295 296 298 300 302 304 305 305 304 304 303 302 301
279 279 279 279 279 279 279 279 279 279 280 280 280 281 281 281 281 282 282 282 282 283 283 283 283 282 282 281 280 280 280 282 284 286 287 285 284 283 282 281 281 281 281 280 280 280 279 279 280 281 280 280 280 281 282 283 284 284 285 285 286 287 289 289 289 288 288 289 291 292 292 292 293 293 295 297 299 300 302 303 304 304 304 303 303 303
278 278 278 278 278 278 278 278 279 279 279 279 280 280 281 281 281 281 281 282 282 282 283 283 283 284 284 283 282 282 282 283 284 285 286 286 285 283 282 282 282 282 281 280 280 280 280 279 280 280 280 279 279 279 281 282 283 283 283 284 285 287 288 289 289 288 288 289 291 292 292 292 292 292 293 295 296 297 299 301 302 302 303 303 303 303
278 278 278 278 278 278 278 278 278 279 279 279 280 280 280 281 281 281 281 282 282 282 282 283 283 283 284 285 284 284 284 284 285 285 286 285 285 283 282 282 282 282 282 282 281 281 280 279 278 278 278 278 279 280 280 281 281 282 282 283 285 286 288 288 288 288 288 290 291 292 292 291 291 291 292 292 293 294 295 296 298 300 301 301 301 302
277 277 277 278 278 278 278 278 278 279 279 280 280 280 281 281 281 281 282 282 282 282 282 283 283 283 283 284 284 285 285 285 285 285 285 285 284 284 283 282 282 282 283 283 282 281 280 279 278 278 277 278 278 279 280 280 280 281 281 283 284 286 288 288 288 288 288 289 290 291 291 291 290 290 290 290 291 291 291 292 294 295 297 297 298 299
277 277 277 278 278 278 278 278 279 279 280 280 281 281 281 281 281 281 281 282 282 282 283 283 283 283 283 284 284 285 285 285 285 285 285 284 284 284 283 283 282 282 283 283 283 282 281 279 279 278 278 278 278 278 279 279 280 281 281 281 282 284 287 287 287 287 287 288 289 290 290 289 289 289 289 289 289 289 290 290 291 292 293 294 294 295
277 277 277 278 278 279 279 279 279 280 280 280 280 280 280 280 280 280 280 281 281 282 282 282 282 282 282 283 284 284 285 285 285 285 284 284 284 284 284 284 283 283 283 282 282 281 280 279 279 278 278 278 278 278 278 279 280 281 281 281 282 284 286 287 287 287 287 287 288 289 289 289 289 289 288 288 289 289 290 290 290 290 291 291 292 292
277 277 277 277 278 278 279 279 280 280 280 280 279 279 279 279 280 279 279 280 280 280 281 281 281 281 281 282 283 284 284 284 284 284 284 284 284 285 284 284 284 283 282 281 280 280 280 279 279 278 278 278 278 278 277 279 280 281 281 282 283 285 286 286 286 286 286 286 287 288 289 288 288 287 288 288 288 288 289 290 290 290 290 290 290 290
277 277 277 278 278 279 279 279 280 280 279 279 279 279 279 280 280 280 279 279 279 280 280 280 280 280 280 281 281 282 282 283 284 284 285 285 285 285 285 284 284 282 282 280 279 279 279 279 279 278 278 278 278 277 277 278 279 280 281 283 284 284 283 284 284 285 286 286 286 287 287 287 287 287 287 287 287 288 288 289 290 290 290 289 289 289
277 277 278 278 278 279 279 279 279 279 278 278 278 279 279 280 280 280 280 279 279 280 280 280 280 280 280 279 280 280 281 282 283 284 285 286 285 285 284 283 283 282 282 280 279 278 278 278 278 279 279 279 278 278 278 278 278 280 281 283 283 282 282 282 283 284 285 286 286 286 286 286 286 286 286 286 287 287 287 288 288 289 290 290 289 289
277 277 278 278 278 278 278 278 278 278 278 278 278 278 279 280 280 280 279 279 279 279 279 280 280 280 279 279 279 279 280 281 282 283 284 285 285 285 284 283 283 282 282 281 280 279 278 278 278 279 279 279 279 278 278 278 279 281 283 283 283 282 282 282 283 284 285 285 285 286 286 286 286 286 285 285 285 285 286 286 287 288 288 289 289 290
277 277 277 277 277 277 277 277 277 278 278 278 278 278 279 279 280 279 279 279 279 279 280 280 280 279 278 278 278 279 279 280 281 282 283 283 283 283 283 282 282 282 281 281 281 281 280 279 279 279 279 279 279 279 279 280 280 281 281 282 282 282 282 282 282 283 284 285 285 285 286 286 286 285 284 284 284 285 285 286 286 287 288 288 289 290
277 276 276 276 276 276 277 277 277 277 277 277 278 278 279 279 279 279 279 279 279 279 280 280 279 279 278 278 278 279 279 279 280 280 281 281 281 281 281 281 281 281 281 281 281 281 281 281 281 280 279 278 278 279 280 281 281 281 281 281 281 281 280 281 281 282 284 285 285 285 286 285 285 284 284 284 284 284 285 285 286 287 288 288 289 289
276 276 276 276 276 276 276 277 277 277 277 277 277 278 278 279 279 279 279 279 280 280 280 279 279 278 278 278 279 279 280 279 279 279 279 279 279 279 279 279 279 280 280 281 281 281 282 282 282 281 280 279 278 278 279 279 280 280 280 280 280 280 280 280 281 282 284 285 285 285 285 285 284 284 284 284 284 284 284 285 286 287 287 288 289 289
276 276 276 276 276 276 276 276 276 276 276 276 277 277 278 279 280 280 279 279 280 279 279 279 278 278 278 278 279 280 280 280 279 278 278 278 278 278 278 278 278 278 279 279 280 281 281 282 282 282 282 280 279 278 278 278 279 279 280 280 280 280 279 280 281 283 284 284 285 285 285 285 285 284 284 284 283 283 284 285 285 286 287 288 289 289
276 276 276 276 276 275 276 276 276 276 276 276 277 277 278 278 279 279 279 280 280 279 279 278 278 278 278 279 279 279 279 279 278 278 277 278 277 277 277 277 277 277 277 277 278 279 280 280 281 282 283 282 281 279 278 278 278 279 279 279 279 279 279 280 282 283 284 284 285 285 285 285 285 285 284 284 283 283 283 284 285 285 287 288 289 290
276 276 276 276 276 276 276 276 276 276 276 277 277 277 277 278 278 279 279 280 279 279 279 279 279 278 278 279 279 279 279 278 278 277 277 277 277 277 276 276 276 275 275 275 276 277 278 278 278 278 280 282 283 281 279 278 278 278 278 278 278 279 279 280 281 283 284 284 284 284 284 284 284 284 284 284 283 283 283 283 284 284 286 287 288 289
Wind_Speed
11 11 12 14 15 15 14 16 17 17 15 14 13 14 14 14 14 15 17 18 17 17 16 16 16 17 19 22 25 28 30 32 33 33 34 34 34 34 34 34 34 34 34 35 35 35 34 34 34 34 33 33 33 33 33 32 31 30 29 29 29 29 29 29 29 30 29 29 28 28 27 27 27 27 26 25 25 24 25 25 25 25 25 25 24 24
11 11 11 14 16 15 13 15 16 16 15 15 15 15 15 16 15 14 14 16 17 17 16 15 15 17 19 20 24 28 30 32 33 33 33 33 33 33 33 33 34 34 34 34 34 34 34 34 34 34 34 33 33 32 32 31 30 29 29 29 29 29 29 29 29 29 29 28 28 27 26 27 27 26 25 24 24 23 24 24 25 25 25 24 24 24
11 11 11 12 14 14 13 14 14 14 15 16 16 16 17 17 15 13 12 13 14 15 14 14 15 16 18 19 23 27 29 31 32 33 33 33 33 33 33 33 33 33 33 33 33 33 33 33 33 33 33 32 32 31 30 30 29 29 29 29 29 28 28 28 28 28 28 28 27 27 26 26 26 26 25 24 23 23 23 24 25 25 25 25 24 24
11 11 11 11 12 13 14 13 13 12 12 14 15 17 18 16 14 12 12 12 13 13 14 15 16 16 16 16 19 24 28 30 32 32 32 32 32 32 32 32 32 32 32 32 32 32 32 32 32 32 31 31 30 29 29 29 29 29 29 28 28 28 27 27 27 28 28 28 28 27 27 27 26 26 25 24 23 23 24 24 25 25 25 25 24 24
11 11 12 11 11 12 13 12 12 11 11 12 14 15 15 13 12 11 12 13 13 14 14 14 15 16 15 14 17 22 27 30 31 32 32 32 31 31 31 31 31 32 32 32 32 32 32 31 31 31 31 30 30 29 29 29 29 29 29 28 28 28 28 28 28 28 28 27 27 27 27 27 27 26 25 24 24 24 24 25 25 25 25 25 24 24
11 11 12 11 10 10 10 10 10 10 11 11 12 13 13 12 11 11 11 12 13 13 13 13 14 15 15 15 18 22 26 29 30 31 31 30 30 30 30 30 31 31 32 32 32 32 32 33 32 32 32 31 31 31 30 30 30 29 29 28 28 28 28 27 27 26 26 25 26 26 26 27 26 26 26 25 24 24 24 25 25 25 24 24 24 24
11 10 11 10 9 8 8 9 10 10 10 10 11 11 11 11 11 11 12 12 12 12 13 13 13 14 15 16 19 22 23 25 27 27 28 28 28 29 29 29 30 30 31 31 32 33 33 34 34 33 33 33 32 32 31 31 30 30 29 28 28 28 27 25 24 23 23 23 24 25 25 26 26 26 25 25 24 24 24 25 25 24 24 23 23 23
11 11 11 10 8 7 8 9 10 11 11 11 10 10 10 10 10 11 12 13 13 13 12 12 12 12 13 15 17 18 18 19 19 20 22 23 24 25 27 28 29 29 30 30 31 31 32 33 33 33 33 33 33 33 32 31 30 29 29 28 27 26 25 24 23 22 22 23 24 25 25 25 25 25 24 24 24 24 24 24 24 24 24 24 23 23
13 12 11 10 10 10 10 10 11 11 11 11 10 10 10 11 10 10 11 12 12 12 11 12 12 12 12 13 14 15 16 16 16 16 17 18 19 21 23 25 26 28 28 29 29 30 31 31 31 31 32 32 32 32 32 31 30 28 27 26 26 25 24 23 23 23 23 24 25 25 25 25 24 24 23 23 23 23 23 23 24 24 25 25 24 24
13 13 12 11 11 11 11 11 11 11 11 10 9 9 10 11 11 11 11 11 11 10 10 11 12 12 12 13 13 14 15 16 18 20 22 21 22 24 24 24 23 24 26 28 29 30 30 30 30 29 30 30 31 31 30 29 28 26 25 24 24 24 24 23 23 23 23 24 25 26 26 25 24 24 23 22 22 22 22 23 23 24 24 25 24 24
12 12 12 11 10 9 9 10 10 10 10 10 9 9 9 9 10 11 12 12 11 10 10 11 11 12 12 12 13 13 14 14 16 18 21 23 25 26 25 24 23 23 25 26 27 28 28 28 28 28 29 29 29 29 28 27 26 24 23 23 23 22 22 22 22 22 23 24 24 25 25 25 24 23 22 22 21 21 22 22 22 22 23 23 23 23
11 11 10 9 9 9 9 9 9 9 8 8 8 9 9 9 9 10 11 11 11 11 11 11 10 11 12 12 13 13 13 13 13 14 15 17 18 18 18 17 17 18 20 21 22 23 25 26 26 27 27 27 27 27 26 25 24 23 22 21 21 21 20 20 21 21 22 23 23 23 24 24 23 22 21 21 20 21 21 20 20 20 21 21 21 21
10 9 8 8 8 7 7 7 7 6 6 7 8 9 9 9 9 9 10 11 11 11 11 11 11 11 12 12 12 12 12 12 13 13 13 13 12 11 11 10 10 11 11 13 13 15 19 22 24 24 25 25 25 25 25 23 22 22 21 21 21 20 20 20 21 21 21 21 22 22 23 22 22 21 20 19 19 18 18 18 18 18 19 18 18 18
9 8 7 7 7 7 6 7 7 8 8 8 9 10 10 9 9 9 9 10 10 10 10 11 12 12 11 11 11 11 11 12 12 12 12 10 9 9 9 9 9 9 9 10 11 13 16 18 18 19 22 23 23 23 22 22 22 22 21 21 21 21 21 21 21 21 21 21 22 22 22 21 20 19 18 17 16 16 15 15 15 15 15 15 14 14
8 8 8 9 9 9 8 9 9 10 10 10 10 10 10 10 10 9 9 10 10 10 10 11 12 12 11 10 10 11 11 11 10 10 10 9 9 9 8 9 10 10 10 11 11 13 16 15 14 15 17 19 21 21 22 22 22 22 21 21 21 21 22 22 22 22 22 22 22 22 22 21 20 19 18 17 15 14 13 13 13 13 12 12 12 12
9 9 11 11 11 11 10 10 10 11 11 11 10 10 11 10 9 9 9 9 9 9 9 11 12 12 10 9 10 10 10 9 8 8 10 10 9 9 9 10 10 11 10 11 11 12 13 13 13 14 15 19 21 23 24 23 22 21 21 20 20 21 21 22 22 23 23 23 22 21 21 21 20 20 18 16 15 13 13 12 12 12 12 12 11 12
11 11 12 12 12 12 11 10 11 11 11 10 10 10 10 9 8 8 8 8 8 8 8 9 10 10 9 9 9 9 9 7 7 7 10 11 11 10 9 10 11 11 11 11 11 11 11 12 12 13 14 18 21 23 24 22 21 20 20 19 20 20 21 22 22 22 22 22 21 20 20 19 19 19 18 16 15 14 13 13 13 13 13 13 13 13
12 12 12 12 12 12 11 11 11 10 10 10 10 10 9 8 7 7 7 7 8 8 9 9 9 9 9 9 8 7 8 7 7 8 10 12 12 11 10 10 10 10 10 10 11 11 11 11 12 13 15 20 22 23 23 22 21 20 19 19 19 20 21 21 21 21 21 20 20 19 19 19 19 19 18 18 17 16 15 15 15 15 15 15 15 15
13 12 12 12 12 11 11 11 11 11 11 10 9 9 9 8 7 7 8 8 8 9 10 10 10 10 10 10 10 10 9 10 10 11 12 13 13 11 10 9 9 10 10 10 10 10 10 11 14 17 20 22 22 22 22 22 22 22 21 21 20 20 20 21 21 21 20 19 18 18 19 20 20 21 21 20 19 19 18 18 18 18 17 17 17 17
13 12 12 11 12 12 12 12 11 11 10 9 9 10 10 8 8 8 9 9 9 10 10 11 11 12 11 12 12 12 11 11 11 12 12 13 13 11 9 9 9 10 10 10 10 10 10 11 13 15 18 20 21 21 22 23 23 24 24 23 22 22 21 21 21 20 19 18 18 18 19 20 21 22 22 21 21 20 19 19 19 19 19 18 18 18
14 13 12 12 11 11 11 10 10 11 11 11 10 10 8 9 9 10 10 10 11 11 11 11 12 12 11 12 12 12 11 12 11 11 10 11 10 9 7 7 8 9 10 10 10 9 9 10 9 10 13 17 20 22 23 24 25 26 26 26 26 25 24 23 23 22 21 20 19 19 20 20 21 22 22 22 21 21 20 20 20 19 19 19 19 19
13 13 13 14 13 11 10 9 10 10 11 11 10 9 9 10 11 11 11 11 12 12 12 12 12 12 12 13 13 13 12 12 11 10 8 9 9 8 6 6 8 9 10 10 9 8 8 9 9 10 14 18 22 24 25 26 27 27 28 28 28 27 26 26 25 24 23 21 20 20 20 21 21 21 22 22 22 21 21 21 20 20 20 20 20 20
13 13 13 13 12 10 9 9 9 9 10 10 10 10 9 10 11 12 12 11 12 12 12 12 12 13 13 13 13 13 12 12 10 8 7 9 9 7 6 6 7 8 9 9 9 9 9 10 10 11 14 20 23 24 26 27 27 28 29 29 29 28 27 26 25 24 23 21 20 20 20 21 21 21 22 22 22 22 22 21 21 21 21 21 20 20
13 13 12 11 9 8 8 9 9 10 10 11 12 11 11 11 12 12 11 11 11 11 11 12 13 13 13 12 12 11 10 8 6 5 5 7 8 8 6 6 7 8 9 9 9 10 11 11 10 10 11 17 21 23 25 26 27 28 29 29 28 27 26 24 23 22 20 20 19 20 20 21 21 22 22 22 23 23 23 23 22 22 22 21 21 21
13 12 12 11 12 12 13 14 15 15 15 14 13 12 12 13 13 12 11 11 11 11 11 12 12 12 10 10 10 9 7 5 5 4 4 6 7 8 7 6 7 9 10 9 9 9 10 10 10 10 10 13 18 21 23 25 26 27 27 26 25 24 23 22 21 20 19 19 19 20 20 21 22 23 24 24 24 24 24 24 23 23 23 22 22 21
19 18 17 18 20 23 25 25 25 24 24 19 15 13 12 12 12 11 11 10 10 10 11 11 11 11 9 9 8 7 4 4 4 4 5 5 7 9 8 7 7 9 10 9 9 9 9 10 10 10 10 11 14 18 21 23 24 25 24 24 23 22 22 22 21 21 20 20 21 21 22 23 24 25 26 26 26 26 25 25 24 24 23 22 21 21
28 28 27 26 26 27 27 27 28 28 28 25 21 18 14 12 11 11 11 10 10 10 11 11 11 11 11 10 8 6 4 4 4 5 5 6 8 9 8 6 7 8 9 9 8 8 10 10 10 10 10 9 10 13 18 20 21 22 22 23 24 24 24 24 24 23 23 22 22 22 23 24 25 26 27 27 27 27 26 25 24 24 23 21 19 17
27 26 24 24 25 25 26 26 26 26 26 26 26 24 18 12 11 11 11 10 10 10 11 11 11 11 11 9 8 6 6 5 6 6 6 6 7 7 7 6 6 6 8 8 8 9 10 10 10 10 9 9 9 10 13 17 19 20 21 23 24 25 26 26 25 24 23 23 23 23 24 25 26 27 28 28 27 27 26 25 24 23 21 17 13 11
22 22 22 23 23 24 24 23 23 23 24 25 25 23 17 12 10 10 11 10 10 11 11 11 11 11 10 9 8 7 7 7 7 7 6 6 6 7 7 6 6 6 7 7 8 8 8 7 7 8 8 8 8 8 10 13 15 16 18 20 22 23 24 25 24 24 23 22 23 24 25 26 27 28 28 28 27 27 26 26 24 21 16 13 11 9
17 17 18 18 19 19 19 18 18 19 21 23 23 21 16 11 10 10 10 10 10 11 12 12 11 10 9 9 9 8 7 6 6 6 6 6 7 7 7 6 6 6 5 6 7 7 6 5 5 6 6 8 8 8 8 9 10 11 12 15 17 19 21 22 22 22 21 22 23 24 26 27 27 27 27 27 26 26 25 25 22 17 11 9 9 8
14 14 13 14 14 14 13 13 14 15 17 18 18 17 14 11 9 9 9 9 10 10 11 11 11 10 10 9 8 8 6 6 6 7 6 6 6 7 7 7 7 6 5 5 6 7 7 5 5 5 6 7 8 8 8 9 9 8 8 10 11 14 18 19 20 20 20 21 23 25 26 27 27 26 26 25 25 24 23 23 20 16 9 9 8 8
13 12 11 11 11 11 11 11 11 11 12 12 12 12 12 11 10 9 9 9 9 10 10 11 11 11 10 10 9 8 6 6 7 8 7 6 6 6 6 6 7 7 5 5 6 7 8 6 5 5 5 7 8 8 9 9 8 8 8 9 10 11 15 16 16 16 16 19 21 23 24 25 25 24 24 24 23 21 21 21 19 15 10 9 8 8
12 11 10 11 11 11 10 10 10 10 10 10 10 10 10 10 10 10 9 8 8 9 9 10 11 11 11 11 10 9 7 7 9 10 10 7 6 6 5 6 7 7 7 6 7 7 7 7 6 6 6 7 7 7 8 8 8 8 8 9 9 10 12 12 12 12 13 15 17 19 20 21 21 21 22 21 20 18 18 19 18 16 12 9 8 8
12 11 11 11 11 10 10 10 10 10 10 10 10 10 9 9 9 10 9 9 8 8 9 10 10 11 11 11 10 9 9 9 10 12 12 9 7 6 7 7 7 8 8 7 7 7 7 8 8 7 6 6 6 6 7 7 8 8 8 9 9 9 9 9 9 10 11 12 12 13 13 14 15 17 18 17 16 14 13 15 17 17 15 11 8 8
12 12 11 11 11 11 11 11 11 10 10 10 10 10 10 9 9 9 9 9 9 9 9 9 10 10 11 11 10 10 10 10 11 13 12 10 8 7 7 7 7 8 8 8 7 6 6 8 9 8 7 7 6 5 5 6 7 8 8 9 9 9 8 8 8 9 10 10 10 9 8 8 10 11 12 14 13 10 7 8 12 16 16 13 11 8
11 11 11 11 11 11 11 11 11 10 10 10 9 9 9 9 9 9 9 10 10 11 11 11 10 10 10 11 11 11 11 11 12 13 12 10 8 7 7 7 7 8 8 9 8 7 7 8 9 9 9 8 7 5 5 5 6 7 8 8 8 8 8 7 7 8 8 9 9 8 6 7 8 9 9 12 14 13 10 3 4 10 13 14 12 10
11 11 11 11 11 11 11 10 10 10 10 10 9 9 10 10 10 10 10 10 11 11 12 12 12 12 13 12 12 12 13 12 13 13 12 10 9 8 8 8 8 9 9 9 9 8 8 8 8 8 8 7 6 6 5 6 7 7 8 8 8 8 7 7 6 7 8 8 8 7 6 7 7 8 8 11 13 13 12 10 6 4 6 7 7 6
11 11 11 11 10 10 10 10 10 10 10 10 10 10 11 11 11 11 11 11 12 12 12 11 11 13 16 16 16 16 15 16 15 14 13 11 10 9 9 9 9 9 9 8 8 8 7 7 7 7 7 7 7 7 7 7 7 8 8 8 8 8 7 6 5 6 7 8 7 7 7 7 7 7 7 8 9 9 9 9 9 8 8 7 7 7
11 11 11 11 11 10 10 10 10 10 10 10 11 11 11 12 12 12 11 11 11 11 12 12 11 12 14 17 18 18 17 16 14 13 12 11 10 9 9 9 9 9 9 8 7 7 6 6 7 7 7 7 7 7 7 7 8 8 9 9 8 7 6 4 4 5 7 7 7 6 6 6 6 6 5 6 7 7 7 7 8 8 7 7 8 10
11 11 11 11 11 11 10 11 11 11 11 11 12 12 12 11 11 10 10 10 11 11 12 12 12 12 13 14 14 14 14 12 11 11 10 10 9 9 9 9 9 9 7 6 5 5 6 6 7 8 8 7 7 7 6 7 7 8 9 8 7 6 4 4 4 4 6 6 6 6 5 5 5 5 5 6 7 7 7 6 6 7 7 5 5 6
12 11 11 11 11 11 11 11 11 11 11 11 11 10 10 10 9 9 9 10 10 10 10 11 11 11 12 11 11 10 10 10 10 10 9 10 11 10 9 9 8 7 6 5 5 6 6 7 8 8 8 7 8 8 8 8 9 10 11 9 8 6 5 4 4 4 5 5 6 6 6 5 5 5 6 6 7 7 6 6 6 7 7 6 5 5
12 12 11 11 10 10 10 11 12 12 12 11 10 10 10 9 9 9 9 10 10 10 9 10 10 11 11 9 9 8 8 9 9 10 10 11 11 10 8 6 5 4 5 6 6 7 7 7 7 7 7 7 7 7 8 8 9 9 9 9 8 7 5 4 4 4 5 5 5 6 6 5 5 5 6 6 6 6 7 7 8 8 8 7 6 6
11 11 11 11 11 11 11 12 12 11 10 10 10 10 10 9 9 10 10 10 10 11 11 10 10 10 9 9 8 8 8 8 9 10 10 9 8 7 6 5 5 5 5 6 6 6 6 6 6 6 6 6 7 8 8 9 9 9 9 8 7 5 3 3 3 4 5 5 5 5 5 4 4 4 5 5 6 6 7 8 9 10 9 7 6 6
11 11 11 11 10 10 11 10 10 10 10 10 10 10 10 10 10 11 10 10 11 11 11 10 9 9 8 9 9 9 8 8 8 8 7 6 5 4 4 5 6 6 6 5 5 5 5 5 6 6 6 6 6 7 8 8 8 8 7 5 4 3 2 3 4 5 5 4 4 4 5 4 3 3 5 5 6 6 6 7 7 8 8 7 7 6
10 10 10 10 10 10 10 10 10 10 10 10 10 10 10 10 11 10 10 10 11 11 10 9 8 7 7 8 8 8 8 7 6 5 3 3 3 4 4 5 5 6 6 5 5 4 4 5 5 5 5 5 6 7 8 8 8 7 4 3 3 2 2 3 4 5 5 4 4 4 4 4 3 3 5 6 6 6 6 7 7 7 7 7 7 7
10 10 11 10 10 11 12 11 11 10 10 10 10 11 10 10 10 10 11 11 11 10 10 9 8 7 8 8 8 8 7 7 5 4 2 2 3 3 4 5 6 6 5 5 5 5 5 5 5 5 5 5 6 7 7 7 6 4 3 3 3 2 2 3 4 4 4 4 4 4 5 4 3 4 5 6 6 6 7 7 7 8 7 7 7 8
11 11 11 11 11 11 11 11 11 11 11 11 11 11 10 10 10 10 10 10 10 9 9 8 8 8 9 9 8 7 7 6 5 4 4 4 4 4 5 5 6 6 6 6 6 5 5 5 4 4 5 5 5 5 5 4 4 4 3 3 3 3 3 3 3 4 4 4 4 4 4 3 3 5 6 6 6 6 7 7 7 7 7 7 7 8
11 12 11 11 11 11 11 11 11 11 11 11 11 11 11 11 11 11 11 10 9 9 8 8 8 8 9 8 8 7 7 6 6 5 5 5 5 5 5 5 5 6 6 6 6 6 5 4 4 4 4 4 4 4 4 4 4 4 4 3 3 3 3 3 3 4 3 4 4 4 4 3 4 4 5 6 6 6 7 7 7 7 7 7 7 7
11 11 11 11 11 11 11 11 11 11 11 12 11 11 11 12 13 13 10 9 8 8 7 8 8 8 8 8 7 7 7 6 6 5 5 5 5 6 6 6 6 5 5 5 5 5 4 3 2 2 3 4 4 4 4 4 4 3 3 3 3 3 3 3 3 3 3 3 4 4 4 4 4 4 5 7 7 7 7 7 8 8 7 7 7 7
11 11 11 11 11 11 11 11 11 11 12 12 12 12 11 11 10 10 9 8 7 7 7 8 8 8 8 8 7 7 7 6 6 5 5 5 5 6 6 6 6 6 6 4 3 3 3 2 1 1 4 6 6 5 4 4 4 3 3 3 3 3 3 3 3 3 3 3 4 4 4 4 4 4 5 7 8 8 8 8 7 7 7 7 7 8
11 11 11 11 11 11 11 11 11 12 12 12 12 12 11 11 10 9 8 7 7 7 7 8 8 8 8 8 7 7 7 6 6 6 5 5 5 6 6 6 6 6 6 5 4 2 2 2 2 2 4 8 10 9 5 4 4 3 3 3 3 3 3 3 3 3 4 4 4 4 5 5 5 5 5 6 7 7 7 7 7 7 7 6 7 8
Wind_Direction
294 297 299 301 300 299 297 298 298 298 298 299 301 302 304 305 305 304 304 302 300 297 294 291 290 291 294 298 299 299 300 299 298 297 296 296 295 294 294 293 293 292 291 290 290 289 288 287 286 286 285 284 283 283 283 282 283 284 285 286 286 287 286 286 285 284 283 280 279 277 277 276 276 275 274 271 267 264 262 259 257 255 253 250 248 245
294 296 297 298 298 296 294 296 296 297 299 302 304 306 308 308 306 304 301 297 294 291 289 288 290 293 296 298 299 299 299 298 297 296 296 295 294 294 293 292 291 291 290 289 288 287 286 285 285 284 284 283 283 283 283 283 284 285 286 286 286 286 285 285 284 284 283 282 281 279 278 277 276 275 275 273 271 269 266 263 259 256 253 251 249 246
297 295 295 295 295 294 293 295 295 297 300 304 306 307 307 305 302 298 295 292 289 289 288 291 294 296 298 298 298 297 297 296 296 295 294 294 293 292 291 291 290 290 289 288 287 287 285 284 284 283 283 283 283 284 284 285 286 286 286 286 285 285 285 285 285 285 285 284 284 282 281 279 277 276 275 274 273 272 269 266 262 257 254 251 249 246
296 295 296 295 294 292 292 294 296 299 302 303 303 302 300 296 293 290 288 289 289 291 293 296 297 298 297 297 296 295 295 294 294 293 293 292 292 292 292 292 292 292 292 291 290 289 287 287 286 285 285 285 285 286 286 287 287 287 286 286 286 286 286 286 286 285 285 284 283 282 281 280 278 277 275 273 272 271 269 267 263 259 255 253 250 247
296 296 298 298 296 294 293 295 298 300 301 299 297 295 291 288 286 287 289 291 294 295 297 297 297 297 296 295 293 293 293 293 293 292 292 292 293 293 294 294 295 295 296 295 295 294 293 292 291 291 290 290 289 289 289 288 288 287 287 287 287 287 287 286 285 284 283 283 281 280 279 278 277 275 273 272 270 269 268 266 264 261 258 255 251 248
297 298 300 299 298 298 298 298 298 299 298 294 291 288 285 286 288 292 295 297 297 297 297 296 295 294 293 291 291 292 292 293 293 293 294 294 294 295 296 296 297 298 298 299 299 299 298 297 296 295 294 293 291 290 289 288 287 286 286 286 286 286 286 286 285 284 284 284 283 281 280 278 276 274 271 270 268 267 266 266 264 263 260 257 253 249
297 297 300 300 299 298 296 294 293 293 293 292 290 289 288 291 294 297 298 298 298 296 295 293 292 291 291 291 292 293 294 295 295 295 295 295 296 296 296 296 297 298 298 299 299 299 298 298 297 296 295 293 291 289 287 286 285 284 284 284 284 284 284 284 284 285 285 286 285 284 281 279 275 272 270 268 266 265 265 265 265 264 263 259 254 250
296 297 297 296 294 290 285 285 287 291 293 293 293 294 295 296 297 297 296 296 295 294 293 292 291 292 292 294 295 296 297 297 297 296 296 296 296 296 296 296 296 296 296 296 296 296 295 295 295 295 294 293 291 289 287 285 283 282 281 281 281 281 281 281 282 283 284 285 285 284 282 279 276 272 269 266 264 263 263 264 264 264 263 260 255 250
294 294 291 286 284 284 284 284 288 291 293 293 294 296 297 297 296 295 294 294 293 294 294 294 294 294 295 297 298 299 298 297 297 296 295 295 294 294 294 294 294 294 294 293 292 291 290 290 291 291 291 290 289 288 286 284 282 281 281 281 281 281 281 281 282 283 284 284 284 283 281 279 276 273 269 266 263 262 262 262 263 263 262 259 255 251
287 286 284 280 279 281 285 288 290 291 291 292 292 293 293 295 295 296 296 296 296 295 294 294 295 296 298 299 300 300 299 298 296 295 294 292 291 291 291 292 292 292 292 291 290 289 288 287 287 286 286 285 284 284 284 283 282 282 281 281 281 282 283 284 284 285 285 284 283 282 281 279 277 274 270 266 263 261 260 260 260 260 260 257 255 251
282 280 280 281 282 282 284 288 291 294 295 294 291 288 286 290 295 299 300 299 297 296 293 293 295 298 302 302 302 301 300 298 296 294 292 291 291 290 290 290 289 289 289 289 289 288 288 287 286 285 284 283 282 282 283 283 283 283 282 282 283 284 285 285 285 285 285 284 283 282 281 279 277 275 271 267 264 261 259 258 257 257 256 255 253 252
280 280 281 283 286 288 289 291 294 298 300 296 292 289 287 291 296 299 298 297 296 295 295 295 296 299 302 302 301 300 298 296 294 293 291 290 290 290 290 288 287 286 287 288 288 289 290 290 290 289 288 286 286 285 286 286 285 285 284 284 285 285 286 285 285 285 285 285 285 285 284 281 279 276 273 270 266 262 259 257 255 254 253 252 252 252
279 280 282 285 288 292 295 298 299 299 296 293 292 292 293 297 298 297 293 290 291 293 296 298 299 299 298 298 297 296 295 293 291 290 288 287 288 289 286 283 282 284 288 291 294 295 295 296 295 294 294 293 291 291 290 290 289 289 288 288 288 288 288 287 286 286 286 287 287 288 287 285 282 280 278 275 271 266 261 257 255 253 252 252 253 254
282 286 289 291 294 296 298 299 297 294 291 290 290 292 294 297 296 293 288 286 288 292 298 299 299 297 296 294 292 291 290 289 287 285 284 283 283 282 280 284 289 295 300 300 300 300 300 299 298 297 296 295 294 294 293 293 292 292 293 293 293 294 295 293 292 291 290 289 289 289 288 288 287 286 285 283 278 273 267 262 259 257 255 255 257 259
295 300 301 300 300 300 300 298 295 292 290 290 290 291 293 292 290 287 285 286 290 296 300 298 297 294 291 290 290 289 287 285 285 285 286 284 282 283 289 296 301 302 301 299 297 296 297 297 295 294 293 292 292 292 292 292 294 296 298 301 304 305 307 306 305 303 300 296 293 291 290 291 291 291 290 288 284 279 275 271 268 266 264 264 264 264
307 307 304 302 300 299 298 297 295 293 292 291 291 291 290 288 285 284 284 289 295 300 301 300 298 295 290 288 288 288 288 287 288 290 293 290 289 292 300 302 301 298 296 293 293 293 293 292 290 289 288 289 290 291 293 295 299 304 306 311 314 314 314 314 312 310 309 304 301 298 295 292 291 289 289 288 285 283 281 279 277 275 274 272 270 268
306 303 300 299 297 297 297 295 293 292 291 290 289 286 283 282 282 284 287 293 298 301 300 300 299 298 296 294 291 290 292 294 294 293 293 290 290 293 300 298 296 293 291 289 289 289 289 288 286 285 286 288 291 294 298 302 305 308 309 311 311 311 310 308 307 305 304 303 302 300 298 295 293 292 292 291 290 289 286 284 282 280 279 277 274 271
301 299 297 296 296 296 297 295 292 290 288 287 286 284 281 280 282 285 290 296 299 300 299 298 296 295 296 295 296 297 301 298 294 291 290 289 290 292 296 292 289 287 287 286 285 285 285 285 285 285 286 292 295 298 302 306 306 306 305 305 305 303 300 298 296 293 293 294 296 298 300 301 301 301 301 300 298 295 292 288 285 283 280 278 276 273
298 297 296 296 296 296 294 292 290 288 288 288 290 291 290 290 292 296 298 299 299 298 298 296 293 290 290 290 293 298 301 298 295 292 290 288 288 290 292 289 287 285 284 284 285 286 286 285 285 287 289 294 297 299 302 303 304 305 306 306 305 302 298 295 291 288 288 290 294 298 302 305 305 304 302 300 298 294 290 287 283 281 278 276 274 272
296 295 295 295 295 292 289 286 286 288 291 295 297 297 297 301 303 303 301 300 297 295 295 293 290 288 288 288 291 295 299 297 293 289 286 284 284 285 289 288 287 286 285 286 288 290 289 290 291 292 294 295 297 299 301 304 307 309 311 311 309 307 303 299 296 294 293 294 296 297 299 299 299 298 297 296 293 291 288 284 281 278 276 274 272 270
293 292 291 291 290 288 286 288 293 298 302 305 305 304 305 306 304 302 299 298 297 295 294 290 288 287 288 288 289 292 294 291 287 284 281 280 280 281 285 287 289 289 289 290 292 293 293 293 294 294 294 297 300 303 306 309 311 313 312 311 309 307 304 302 300 298 297 298 296 295 295 294 294 294 293 292 291 289 286 284 281 278 276 273 270 268
290 289 289 287 285 285 288 295 303 308 310 309 308 305 304 303 301 300 299 299 297 295 293 289 286 285 285 283 283 284 284 280 278 277 279 279 279 282 289 294 295 294 292 294 296 297 295 293 292 292 295 301 305 309 311 312 312 311 308 306 304 302 300 298 296 294 293 292 292 292 292 292 292 291 290 289 288 287 285 283 281 278 276 273 270 267
286 286 286 285 284 286 293 299 303 304 303 300 297 295 296 297 297 298 298 297 295 293 290 286 283 280 277 275 275 275 274 272 272 274 279 281 284 290 300 303 300 296 292 294 297 298 296 295 296 298 301 305 307 309 309 309 308 306 303 301 300 299 298 295 294 292 291 291 292 292 292 291 289 288 287 286 285 283 282 281 279 277 274 272 269 266
288 287 287 286 287 290 295 297 299 300 300 298 297 296 295 295 295 295 295 294 291 289 286 283 279 276 272 271 272 274 273 273 275 279 280 283 289 295 305 307 301 294 290 293 296 298 298 297 298 300 301 304 305 305 305 304 302 300 299 299 299 299 299 298 297 297 295 295 294 293 291 289 288 286 284 283 282 280 279 277 275 274 272 269 267 264
291 289 288 291 296 300 302 303 304 305 305 303 301 300 299 298 297 296 294 291 288 284 281 279 278 278 278 280 281 280 278 279 281 284 284 288 292 295 301 304 298 293 291 294 296 298 297 296 296 297 297 299 300 301 300 298 297 297 298 300 302 304 305 305 304 303 301 298 295 293 291 289 288 287 285 283 281 279 277 275 272 270 268 266 264 262
296 295 295 299 302 304 305 306 306 306 305 304 303 302 302 301 299 296 293 289 286 284 283 282 283 285 288 289 287 284 285 289 289 290 291 294 294 295 299 300 296 292 292 294 295 296 295 294 295 296 296 295 296 296 295 295 296 298 301 305 308 310 310 309 307 304 301 298 296 295 294 292 291 289 287 284 281 278 275 273 270 267 265 264 262 260
298 298 299 302 303 305 306 307 306 305 305 305 304 304 303 302 299 294 290 290 290 289 288 288 289 290 291 286 284 284 296 302 303 301 299 295 293 293 297 299 296 293 292 292 293 294 293 293 294 294 293 292 292 292 293 295 298 302 307 310 311 311 310 308 306 304 301 299 298 297 296 295 293 290 288 284 281 277 274 270 267 265 262 261 259 257
298 299 302 303 305 306 308 308 307 307 306 306 305 305 304 301 296 292 290 292 293 291 288 288 289 289 287 285 286 293 305 306 305 304 302 294 290 290 296 299 297 293 293 293 293 292 291 290 290 291 290 290 290 292 295 300 304 307 310 310 310 309 307 306 304 302 300 300 299 299 298 296 293 290 287 284 280 276 271 267 264 261 258 255 251 247
298 299 301 304 306 308 309 308 307 306 306 305 304 304 303 298 292 289 290 293 292 289 286 285 285 286 288 292 297 301 303 302 303 305 306 297 290 289 296 297 296 296 299 299 297 293 287 285 286 288 289 292 295 298 301 305 307 307 307 306 305 304 303 302 301 300 300 301 301 300 299 296 293 290 287 284 279 274 269 263 260 257 251 245 240 236
300 302 303 306 308 309 309 307 306 304 304 303 302 302 299 294 289 287 289 290 290 288 287 288 289 292 298 303 304 302 299 301 306 310 310 299 292 290 296 295 297 300 307 306 302 297 289 285 285 289 293 297 300 302 302 303 302 301 301 302 301 301 300 299 300 301 303 304 303 302 300 297 294 291 289 286 281 274 267 259 254 248 237 231 228 226
304 305 306 308 308 308 306 304 302 301 301 301 300 299 297 293 288 286 286 287 288 289 291 294 297 301 305 306 303 300 297 303 308 311 308 296 289 289 295 295 297 301 308 307 304 301 298 296 293 293 297 299 300 299 297 297 297 298 299 300 300 299 298 299 301 304 306 306 305 303 300 298 296 294 293 289 283 275 265 255 247 238 225 220 218 217
305 306 307 307 307 305 303 302 301 299 299 299 298 296 294 292 290 287 286 287 288 290 292 295 297 299 299 296 293 292 295 301 305 305 301 291 285 286 292 294 297 300 303 297 292 292 296 299 301 301 299 297 296 295 294 296 298 300 302 301 299 298 299 302 304 307 309 307 305 303 301 300 299 298 297 293 286 276 263 251 241 230 215 211 209 211
305 306 306 306 304 303 301 300 299 299 299 298 296 295 294 293 291 290 289 288 288 289 291 293 294 294 293 290 287 287 289 294 298 299 297 291 287 287 291 294 297 299 299 290 283 280 283 291 297 300 297 294 293 293 295 298 301 303 303 301 299 298 300 304 307 309 310 307 304 302 301 302 303 303 302 298 291 278 261 248 236 224 208 203 202 205
306 305 305 304 303 302 301 300 300 299 299 298 297 296 295 294 293 293 291 290 289 288 289 290 291 291 292 290 288 287 287 291 294 296 296 292 289 289 293 295 297 299 299 291 285 281 279 285 291 296 297 294 292 292 295 299 302 303 301 300 299 300 303 308 310 310 309 306 302 300 300 304 306 307 307 308 303 289 264 243 228 216 205 199 196 198
305 305 305 304 304 303 302 301 301 300 299 298 297 297 296 295 295 294 293 291 290 288 286 285 285 286 288 289 289 289 289 290 292 293 293 289 288 289 292 294 297 299 295 291 288 287 285 286 289 292 295 295 294 293 294 299 301 302 300 300 299 301 304 308 310 310 308 304 299 298 303 309 310 311 313 324 328 325 301 243 219 209 203 200 198 198
305 305 305 306 305 304 303 303 302 301 300 299 298 297 297 296 295 293 292 290 289 287 285 283 281 280 280 282 283 285 286 287 288 288 286 284 285 288 291 295 297 296 291 288 287 287 287 288 289 291 292 294 296 298 300 302 303 302 301 300 300 300 300 303 306 307 305 300 298 300 311 314 313 314 319 339 351 359 7 5 196 196 196 198 200 202
305 305 306 306 306 305 304 304 303 302 302 301 300 299 298 296 294 292 290 287 285 283 282 281 279 276 274 274 275 277 279 281 282 282 281 281 284 288 290 292 292 289 285 285 286 287 286 288 290 291 292 293 297 302 307 308 306 303 301 301 300 299 295 298 302 305 301 297 299 307 319 319 317 318 322 343 356 7 19 32 52 105 154 167 175 182
306 307 307 307 307 306 305 305 304 303 303 302 301 299 298 295 293 290 288 284 281 279 278 278 278 276 274 274 272 272 273 275 276 277 278 279 281 283 284 285 284 281 278 278 281 283 285 288 293 296 297 295 296 299 304 307 306 304 302 301 298 293 289 294 301 305 302 301 306 315 323 323 321 323 330 345 355 5 15 22 32 46 71 79 86 88
308 308 308 308 307 307 306 305 304 303 303 301 299 298 296 294 291 289 286 283 281 279 277 277 278 278 277 275 274 273 273 274 275 276 276 275 274 274 275 276 277 276 274 273 274 279 285 291 296 299 300 299 299 300 302 302 302 302 304 302 296 290 285 293 305 310 308 308 314 322 326 325 326 331 342 355 3 8 11 12 16 22 36 50 63 67
309 308 307 307 307 306 305 304 303 302 301 299 297 296 295 293 291 289 286 285 284 284 283 281 280 280 278 277 277 276 276 275 275 274 273 270 268 267 268 271 273 275 276 277 280 288 295 297 296 295 294 295 298 300 301 299 299 301 303 301 298 295 299 311 317 317 315 317 322 326 329 329 333 342 357 9 13 13 12 12 12 14 17 27 43 56
309 308 307 307 306 305 303 301 301 300 299 298 297 296 295 295 295 294 292 291 291 290 289 287 285 283 281 278 277 277 277 276 275 273 272 269 268 268 268 270 273 279 289 296 301 300 299 294 292 290 290 292 294 296 295 295 295 296 297 294 294 298 308 318 323 323 321 325 328 332 333 334 341 352 9 18 19 17 14 17 20 21 21 23 29 39
309 307 307 306 305 304 303 301 300 299 298 297 297 296 297 297 298 297 298 297 296 295 293 292 291 289 287 285 283 283 283 281 279 276 274 272 272 272 274 278 286 298 308 304 298 293 288 286 287 288 290 293 294 294 293 292 291 292 290 288 290 296 303 315 325 328 327 333 335 336 338 338 345 0 17 24 23 21 20 25 30 33 33 30 29 32
307 306 305 304 303 302 301 301 300 299 300 299 298 298 298 299 298 298 298 297 297 297 296 295 293 292 291 292 294 294 291 285 280 278 277 276 277 280 287 295 300 303 300 292 287 284 282 281 281 283 286 288 289 288 288 290 290 289 284 286 292 302 309 326 331 330 331 338 339 340 339 339 348 5 24 30 29 26 25 30 34 36 38 37 37 39
306 304 304 303 302 302 303 302 302 302 302 301 300 300 299 299 299 298 297 297 297 297 297 295 293 291 291 296 298 298 296 291 285 281 280 284 289 295 300 299 296 291 285 280 279 280 282 280 279 279 282 283 284 284 285 286 285 283 282 289 301 312 315 323 324 325 328 338 342 342 339 337 347 12 35 37 33 29 27 28 30 31 33 35 39 43
304 304 304 305 305 306 305 305 304 304 303 302 301 301 300 300 300 300 298 297 296 296 295 295 294 295 297 299 299 299 297 296 293 290 288 299 311 315 310 303 299 294 287 279 276 277 281 283 285 286 286 282 281 280 280 279 280 283 290 308 317 315 308 321 322 322 326 338 342 340 335 332 344 21 46 43 37 30 26 27 29 30 30 33 37 42
306 306 307 307 307 307 306 305 305 305 304 303 302 302 302 302 301 300 298 296 295 294 293 295 297 299 300 301 300 299 298 299 301 308 321 331 334 328 321 313 308 303 295 287 280 277 276 280 287 292 294 288 281 274 270 276 286 300 321 327 327 324 323 333 330 326 327 337 339 335 329 333 0 41 55 50 43 36 29 29 30 30 30 33 38 42
308 308 308 307 307 306 305 306 305 305 305 304 303 303 303 302 301 299 297 296 295 294 295 297 299 299 298 298 298 299 300 305 313 324 333 333 331 328 324 316 310 303 294 287 279 273 269 273 282 292 296 294 290 288 290 304 316 323 327 332 335 338 343 341 332 326 329 339 341 336 331 347 27 52 58 57 52 44 36 32 30 29 30 35 41 46
308 308 307 307 307 306 305 306 306 305 305 304 303 303 303 303 302 301 299 298 297 297 300 302 302 300 297 297 298 302 308 316 323 330 331 329 328 326 324 318 311 303 293 283 275 269 262 263 274 291 300 303 306 310 320 327 332 333 334 339 342 345 348 339 329 326 334 349 351 349 348 12 38 53 60 61 57 50 43 36 31 29 29 35 43 51
307 306 306 306 306 305 305 306 306 305 304 304 303 303 303 303 303 302 299 299 300 301 305 305 304 301 299 300 304 310 318 323 327 328 329 329 328 327 325 322 317 311 301 288 274 261 248 240 251 302 335 337 332 325 321 325 330 335 338 343 346 347 345 335 332 335 349 3 7 9 15 27 36 47 61 65 62 56 49 42 35 30 28 33 42 51
306 304 304 304 305 305 305 305 305 305 304 303 303 303 303 304 303 301 298 300 302 305 306 306 304 303 303 307 313 320 327 327 327 327 328 330 330 329 327 325 323 320 315 303 284 255 223 199 180 41 20 17 10 357 335 332 332 337 346 349 348 347 343 337 339 346 2 12 17 23 33 35 35 40 55 65 65 61 55 47 39 32 26 33 43 53
306 304 304 304 304 304 304 305 304 304 303 302 302 302 303 303 302 301 302 305 308 310 308 307 306 306 309 314 319 324 328 326 325 326 329 332 333 332 330 328 327 326 323 319 308 283 218 172 148 84 38 29 24 19 6 350 343 344 352 351 347 344 342 340 345 354 9 17 24 31 39 40 39 40 49 61 65 63 58 50 41 32 24 32 45 57